Terminal Aerodrome Forecast
Issued by NWS

Home | Current Version | Previous Version | Graphics & Text | Print | Product List | Glossary On
Versions: 1 2 3 4 5 6 7 8 9 10 11 12 13 14 15 16 17 18 19 20 21 22 23
000
FTUS42 KMHX 011100
TAFISO
TAF
KISO 011125Z 0112/0212 00000KT 1/2SM FG OVC002
     FM011400 36005KT P6SM SCT025
     FM020400 00000KT 4SM BR SCT007
     FM020700 00000KT 2SM BR SCT004
      AMD LTD TO CLD VIS AND WIND=

USA.gov is the U.S. government's official web portal to all federal, state and local government web resources and services.